Date String (YYYY-MM-DD hh:mm:ss) UTC,Instrument flags,Ambient pressure (hPa),Sample flow (lpm),Bypass flow (lpm),Sample temperature (°C),Ambient temperature (°C),ASC tube jacket temperature (°C),LED temperature (°C),Box temperature (°C),Sample RH (%),Span deviation,Mass concentration (μg/m³),Mass concentration (μg/m³),Mass concentration (μg/m³)
DateTimeUTC,F1_M11,P_M11,Q1_M11,Q2_M11,T1_M11,T2_M11,T3_M11,T4_M11,T5_M11,U1_M11,ZSPAN_M11,X2_M11,X0_M11,X1_M11
2022-12-06 01:00:00,,0818.0,5.00,0.00,24.1,22.1,00.0,33.2,25.9,16.4,0000.0,0004.23,0009.08,0003.49
2022-12-06 01:01:00,,0818.0,5.00,0.00,24.1,22.1,00.0,33.2,25.8,16.5,0000.0,0004.18,0009.04,0003.47
2022-12-06 01:02:00,,0818.0,4.99,0.00,24.0,22.2,00.0,33.1,25.8,16.4,0000.0,0004.20,0009.50,0003.46
2022-12-06 01:03:00,,0818.0,5.01,0.00,24.0,22.2,00.0,33.1,25.8,16.5,0000.0,0004.19,0009.84,0003.44
2022-12-06 01:04:00,,0818.0,5.01,0.00,24.0,22.1,00.0,33.1,25.7,16.5,0000.0,0004.13,0009.78,0003.42
2022-12-06 01:05:00,,0818.0,5.00,0.00,24.0,22.1,00.0,33.1,25.7,16.6,0000.0,0004.11,0009.88,0003.41
2022-12-06 01:06:00,,0818.0,4.99,0.00,24.0,22.1,00.0,33.1,25.7,16.6,0000.0,0004.08,0009.83,0003.40
2022-12-06 01:07:00,,0818.0,5.00,0.00,24.0,22.1,00.0,33.1,25.7,16.6,0000.0,0004.03,0009.72,0003.41
2022-12-06 01:08:00,,0818.0,5.00,0.00,24.0,22.1,00.0,33.0,25.7,16.6,0000.0,0004.04,0010.28,0003.43
2022-12-06 01:09:00,,0818.0,5.00,0.00,23.9,22.0,00.0,33.0,25.7,16.6,0000.0,0004.08,0010.94,0003.46
2022-12-06 01:10:00,,0818.0,5.00,0.00,23.9,21.9,00.0,33.0,25.6,16.6,0000.0,0004.12,0010.79,0003.48
2022-12-06 01:11:00,,0818.0,5.00,0.00,23.9,21.9,00.0,33.0,25.6,16.7,0000.0,0004.19,0010.42,0003.50
2022-12-06 01:12:00,,0818.0,5.01,0.00,23.9,21.8,00.0,33.0,25.5,16.7,0000.0,0004.24,0010.13,0003.53
2022-12-06 01:13:00,,0818.0,5.01,0.00,23.8,21.8,00.0,32.9,25.5,16.7,0000.0,0004.31,0010.34,0003.57
2022-12-06 01:14:00,,0818.0,5.00,0.00,23.8,21.8,00.0,32.9,25.5,16.8,0000.0,0004.39,0010.66,0003.62
2022-12-06 01:15:00,,0818.0,5.00,0.00,23.8,21.7,00.0,32.9,25.5,16.9,0000.0,0004.47,0011.26,0003.66
2022-12-06 01:16:00,,0818.0,4.99,0.00,23.8,21.7,00.0,32.9,25.5,16.9,0000.0,0004.55,0011.82,0003.70
2022-12-06 01:17:00,,0818.0,5.00,0.00,23.7,21.8,00.0,32.9,25.5,16.9,0000.0,0004.60,0012.52,0003.75
2022-12-06 01:18:00,,0818.0,5.01,0.00,23.7,21.8,00.0,32.8,25.4,16.9,0000.0,0004.74,0013.75,0003.79
2022-12-06 01:19:00,,0818.0,4.98,0.00,23.7,21.8,00.0,32.8,25.5,16.9,0000.0,0004.75,0013.35,0003.81
2022-12-06 01:20:00,,0818.0,5.00,0.00,23.7,21.7,00.0,32.8,25.3,17.0,0000.0,0004.78,0013.16,0003.82
2022-12-06 01:21:00,,0818.0,4.99,0.00,23.7,21.7,00.0,32.8,25.3,17.0,0000.0,0004.79,0014.62,0003.82
2022-12-06 01:22:00,,0818.0,5.01,0.00,23.6,21.7,00.0,32.8,25.3,17.0,0000.0,0004.77,0015.39,0003.85
2022-12-06 01:23:00,,0818.0,4.99,0.00,23.6,21.7,00.0,32.8,25.3,17.0,0000.0,0004.76,0015.68,0003.86
2022-12-06 01:24:00,,0818.0,5.02,0.00,23.6,21.5,00.0,32.7,25.3,17.0,0000.0,0004.70,0015.83,0003.85
2022-12-06 01:25:00,,0817.9,5.00,0.00,23.5,21.5,00.0,32.7,25.2,17.0,0000.0,0004.64,0016.12,0003.83
2022-12-06 01:26:00,,0817.9,5.00,0.00,23.5,21.5,00.0,32.7,25.2,17.1,0000.0,0004.62,0015.67,0003.83
2022-12-06 01:27:00,,0818.0,5.01,0.00,23.5,21.5,00.0,32.7,25.2,17.1,0000.0,0004.59,0015.05,0003.82
2022-12-06 01:28:00,,0818.1,4.98,0.00,23.5,21.5,00.0,32.6,25.1,17.2,0000.0,0004.62,0014.64,0003.81
2022-12-06 01:29:00,,0818.0,5.03,0.00,23.5,21.5,00.0,32.6,25.1,17.1,0000.0,0004.56,0013.51,0003.79
2022-12-06 01:30:00,,0818.0,4.99,0.00,23.5,21.5,00.0,32.6,25.1,17.2,0000.0,0004.61,0013.33,0003.80
2022-12-06 01:31:00,,0818.0,4.99,0.00,23.4,21.5,00.0,32.6,25.1,17.2,0000.0,0004.62,0013.00,0003.80
2022-12-06 01:32:00,,0818.0,5.01,0.00,23.4,21.6,00.0,32.6,25.1,17.2,0000.0,0004.61,0011.57,0003.80
2022-12-06 01:33:00,,0818.0,4.98,0.00,23.4,21.6,00.0,32.5,25.1,17.2,0000.0,0004.60,0011.19,0003.77
2022-12-06 01:34:00,,0817.9,5.01,0.00,23.4,21.6,00.0,32.5,25.1,17.2,0000.0,0004.62,0011.48,0003.76
2022-12-06 01:35:00,,0818.0,5.00,0.00,23.4,21.5,00.0,32.5,25.1,17.2,0000.0,0004.61,0011.51,0003.75
2022-12-06 01:36:00,,0818.0,5.00,0.00,23.4,21.5,00.0,32.5,25.1,17.2,0000.0,0004.62,0011.60,0003.75
2022-12-06 01:37:00,,0818.0,5.00,0.00,23.4,21.5,00.0,32.5,25.1,17.3,-000.5,0004.67,0012.88,0003.75
2022-12-06 01:38:00,,0818.0,4.99,0.00,23.4,21.6,00.0,32.4,25.1,17.3,-001.9,0004.71,0013.04,0003.74
2022-12-06 01:39:00,,0818.0,5.00,0.00,23.3,21.5,00.0,32.4,25.1,17.3,-001.8,0004.63,0013.10,0003.73
2022-12-06 01:40:00,,0818.0,5.00,0.00,23.3,21.5,00.0,32.4,25.1,17.4,-001.5,0004.66,0013.38,0003.73
2022-12-06 01:41:00,,0818.0,5.00,0.00,23.3,21.5,00.0,32.4,25.1,17.4,-001.3,0004.66,0013.31,0003.73
2022-12-06 01:42:00,,0818.0,5.02,0.00,23.3,21.5,00.0,32.4,25.0,17.4,-001.3,0004.63,0013.30,0003.72
2022-12-06 01:43:00,,0818.0,4.99,0.00,23.3,21.4,00.0,32.4,25.0,17.3,-001.5,0004.60,0014.03,0003.71
2022-12-06 01:44:00,,0818.0,5.00,0.00,23.3,21.4,00.0,32.4,25.0,17.4,-001.4,0004.59,0015.33,0003.70
2022-12-06 01:45:00,,0818.0,5.01,0.00,23.3,21.5,00.0,32.4,25.0,17.4,-001.2,0004.60,0015.45,0003.70
2022-12-06 01:46:00,,0818.0,5.00,0.00,23.3,21.5,00.0,32.3,25.0,17.5,-000.8,0004.61,0015.29,0003.71
2022-12-06 01:47:00,,0818.0,4.99,0.00,23.2,21.4,00.0,32.3,25.0,17.4,-000.7,0004.62,0014.61,0003.71
2022-12-06 01:48:00,,0818.0,4.99,0.00,23.2,21.4,00.0,32.3,25.0,17.4,-000.3,0004.60,0013.39,0003.69
2022-12-06 01:49:00,,0818.0,5.01,0.00,23.2,21.3,00.0,32.3,24.9,17.5,-000.8,0004.58,0013.18,0003.67
2022-12-06 01:50:00,,0818.0,5.00,0.00,23.2,21.3,00.0,32.3,24.9,17.5,0000.0,0004.59,0012.99,0003.67
2022-12-06 01:51:00,,0818.0,5.01,0.00,23.2,21.3,00.0,32.3,24.9,17.6,0000.0,0004.56,0012.66,0003.65
2022-12-06 01:52:00,,0818.0,5.01,0.00,23.2,21.3,00.0,32.3,24.9,17.4,0000.0,0004.52,0012.58,0003.62
2022-12-06 01:53:00,,0818.0,5.00,0.00,23.1,21.3,00.0,32.2,24.9,17.4,0000.0,0004.51,0012.59,0003.59
2022-12-06 01:54:00,,0818.0,4.99,0.00,23.1,21.3,00.0,32.2,24.9,17.4,0000.0,0004.49,0011.91,0003.57
2022-12-06 01:55:00,,0818.0,5.00,0.00,23.1,21.2,00.0,32.2,24.9,17.4,0000.0,0004.49,0011.18,0003.55
2022-12-06 01:56:00,,0818.0,4.99,0.00,23.1,21.1,00.0,32.2,24.8,17.5,0000.0,0004.45,0010.78,0003.53
2022-12-06 01:57:00,,0818.0,5.00,0.00,23.1,21.1,00.0,32.2,24.8,17.5,0000.0,0004.43,0010.54,0003.50
2022-12-06 01:58:00,,0818.0,5.01,0.00,23.1,21.1,00.0,32.2,24.8,17.6,0000.0,0004.41,0010.60,0003.49
2022-12-06 01:59:00,,0818.0,5.00,0.00,23.0,21.1,00.0,32.1,24.8,17.5,0000.0,0004.35,0010.32,0003.47
